Location: Berbisdorf
(50.7638°N, 12.9442°E)
Time: 02:46:11
(UTC+00:00)

BREEZE-M DEB (TANK) - Pass Details

Date: 04 October 2020
Orbit: 333 x 12040 km, 49.7° (Epoch: 19 October)

Event Time Altitude Azimuth Distance (km) Brightness Sun altitude
Rises 01:14:33 0° 166° (SSE) 14,848 9.1 -35.5°
Reaches altitude 10° 01:30:03 10° 160° (SSE) 15,117 9.1 -33.7°
Maximum altitude 02:47:13 41° 112° (ESE) 11,472 9.0 -23.5°
Drops below altitude 10° 03:24:22 10° 60° (ENE) 8,504 9.3 -18.0°
Sets 03:29:16 0° 54° (NE) 8,518 9.4 -17.2°
